Weather in Karpylivka

Ukraine / Chernihiv Region     50°59′16″N   30°49′16″E
temp.,
°C
wind,
m/s
gust,
m/s
humid.,
%
clouds,
%
prec.,
mm/h
press.,
hPa
HPBL,
m
14 may, fri
fri1400:00+11sse51183100 0.1 1010361
03:00+11se4108739 0.1 1010276
06:00+11ese41193100 0.2 1009344
09:00+15se587184 0.3 1008417
12:00+18se6863100 0.2 10071090
15:00+17s467191 0.6 1007640
18:00+18ssw46709 0.4 1006934
21:00+13ssw34895 0.7 100657
15 may, sat
sat1500:00+11ssw369223 0.4 1007108
03:00+12s369294 0.4 1007171
06:00+11ssw249699 0.0 100894
09:00+14ssw4684100 0.0 1009381
12:00+18ssw576199 0.1 10101333
15:00+18sw675832 0.2 10101218
18:00+17ssw56615 0.1 10101370
21:00+13ssw48895 0.1 1011205
16 may, sun
sun1600:00+11sw37963 0.0 1012173
03:00+10sw23972 0.0 101351
06:00+10sw23961 0.0 101364
09:00+16sse22733 0.0 1013430
12:00+20s345610 0.0 10131193
15:00+22sse3350100 0.0 10121539
18:00+21se4564100 0.1 1011798
21:00+16ese3479100 0.3 101051
17 may, mon
mon1700:00+15ese358121 0.0 101070
03:00+14ese3583100 0.0 100989
06:00+14e2284100 0.0 100847
09:00+16sse2284100 0.4 1009163
12:00+14nnw3595100 4.2 1007197
15:00+14n3796100 7.6 1006354
18:00+15nne228866 1.0 1006301
21:00+13nnw229327 1.0 100613
18 may, tue
tue1800:00+12nw119541 0.0 100610
03:00+12nw1195100 0.0 100610
06:00+12wnw1196100 0.0 100617
09:00+16wnw118395 0.0 1007387
12:00+19se1166100 1.1 1007971
15:00+20wnw236298 2.9 10061210
18:00+15wsw3579100 1.9 1006217
21:00+14w2486100 2.6 100797